| time (UTC) | temp C | wind direction | speed KPH | gust KPH | rain 1hr cm | rain 24hr cm | rain mn cm | humidity % | barometer mb |
| 20260507083503 | 20 | 56 | 3.2 | 9.7 | 0.00 | 1.19 | 0.15 | 68 | 1014.7 |
| 20260507083000 | 20 | 57 | 1.6 | 9.7 | 0.00 | 1.19 | 0.15 | 70 | 1014.8 |
| 20260507082433 | 20 | 31 | 1.6 | 8.0 | 0.00 | 1.19 | 0.15 | 70 | 1014.8 |
| 20260507081945 | 20 | 29 | 4.8 | 8.0 | 0.00 | 1.19 | 0.15 | 70 | 1014.7 |
| 20260507081442 | 20 | 37 | 1.6 | 6.4 | 0.00 | 1.19 | 0.15 | 71 | 1014.8 |
| 20260507080935 | 20 | 37 | 1.6 | 8.0 | 0.00 | 1.19 | 0.15 | 71 | 1014.8 |
| 20260507080433 | 20 | 37 | 1.6 | 8.0 | 0.00 | 1.19 | 0.15 | 71 | 1014.9 |
| 20260507075945 | 20 | 38 | 1.6 | 4.8 | 0.00 | 1.19 | 0.15 | 71 | 1015.0 |
| 20260507075444 | 20 | 38 | 0.0 | 1.6 | 0.00 | 1.19 | 0.15 | 72 | 1015.0 |
| 20260507074933 | 20 | 42 | 0.0 | 0.0 | 0.00 | 1.19 | 0.15 | 73 | 1014.9 |
| 20260507074457 | 20 | 43 | 0.0 | 0.0 | 0.00 | 1.19 | 0.15 | 75 | 1014.9 |
| 20260507073942 | 20 | 43 | 0.0 | 0.0 | 0.00 | 1.19 | 0.15 | 75 | 1014.9 |
| 20260507073438 | 19 | 43 | 0.0 | 0.0 | 0.00 | 1.19 | 0.15 | 76 | 1014.9 |
| 20260507072951 | 19 | 43 | 0.0 | 0.0 | 0.00 | 1.19 | 0.15 | 77 | 1014.9 |
| 20260507072443 | 19 | 52 | 0.0 | 0.0 | 0.00 | 1.19 | 0.15 | 77 | 1014.9 |
| 20260507071934 | 18 | 52 | 0.0 | 0.0 | 0.00 | 1.19 | 0.15 | 79 | 1014.9 |
| 20260507071430 | 18 | 52 | 0.0 | 0.0 | 0.00 | 1.19 | 0.15 | 80 | 1014.9 |
| 20260507070941 | 18 | 52 | 0.0 | 0.0 | 0.00 | 1.19 | 0.15 | 81 | 1015.1 |
| 20260507070435 | 18 | 52 | 0.0 | 0.0 | 0.00 | 1.19 | 0.15 | 81 | 1015.1 |
| 20260507065955 | 17 | 52 | 0.0 | 0.0 | 0.00 | 1.19 | 0.15 | 82 | 1015.1 |
| 20260507065441 | 17 | 52 | 0.0 | 0.0 | 0.00 | 1.19 | 0.15 | 82 | 1015.1 |
| 20260507064931 | 17 | 52 | 0.0 | 0.0 | 0.00 | 1.19 | 0.15 | 83 | 1015.1 |
| 20260507064427 | 17 | 52 | 0.0 | 4.8 | 0.00 | 1.19 | 0.15 | 83 | 1015.0 |
| 20260507063939 | 17 | 52 | 1.6 | 4.8 | 0.00 | 1.19 | 0.15 | 83 | 1015.0 |
| 20260507063436 | 17 | 52 | 0.0 | 4.8 | 0.00 | 1.19 | 0.15 | 84 | 1014.9 |
| 20260507062949 | 16 | 52 | 1.6 | 4.8 | 0.00 | 1.19 | 0.15 | 84 | 1014.9 |
| 20260507062445 | 16 | 53 | 1.6 | 4.8 | 0.00 | 1.19 | 0.15 | 85 | 1014.9 |
| 20260507061936 | 16 | 53 | 0.0 | 0.0 | 0.00 | 1.19 | 0.15 | 86 | 1014.7 |
| 20260507061433 | 16 | 53 | 0.0 | 6.4 | 0.00 | 1.19 | 0.15 | 86 | 1014.7 |
| 20260507060926 | 16 | 53 | 1.6 | 6.4 | 0.00 | 1.19 | 0.15 | 86 | 1014.7 |
| 20260507060446 | 16 | 54 | 3.2 | 6.4 | 0.00 | 1.19 | 0.15 | 86 | 1014.7 |
| 20260507055956 | 16 | 61 | 0.0 | 6.4 | 0.00 | 1.30 | 0.15 | 87 | 1014.6 |
| 20260507055440 | 16 | 62 | 3.2 | 6.4 | 0.00 | 1.30 | 0.15 | 87 | 1014.6 |
| 20260507054934 | 16 | 68 | 1.6 | 4.8 | 0.00 | 1.30 | 0.15 | 87 | 1014.6 |
| 20260507054432 | 15 | 69 | 1.6 | 3.2 | 0.00 | 1.30 | 0.15 | 88 | 1014.6 |
| 20260507053943 | 15 | 69 | 0.0 | 4.8 | 0.00 | 1.30 | 0.15 | 89 | 1014.7 |
| 20260507053441 | 15 | 69 | 0.0 | 4.8 | 0.00 | 1.30 | 0.15 | 90 | 1014.7 |
| 20260507052944 | 15 | 69 | 1.6 | 4.8 | 0.00 | 1.30 | 0.15 | 90 | 1014.7 |
| 20260507052441 | 15 | 69 | 1.6 | 6.4 | 0.00 | 1.30 | 0.15 | 90 | 1014.6 |
| 20260507051949 | 15 | 69 | 1.6 | 6.4 | 0.00 | 1.30 | 0.15 | 90 | 1014.5 |
| 20260507051442 | 15 | 69 | 1.6 | 8.0 | 0.00 | 1.30 | 0.15 | 90 | 1014.6 |
| 20260507050935 | 15 | 69 | 3.2 | 8.0 | 0.00 | 1.30 | 0.15 | 90 | 1014.6 |
| 20260507050431 | 14 | 69 | 4.8 | 8.0 | 0.00 | 1.30 | 0.15 | 90 | 1014.6 |
| 20260507045946 | 14 | 69 | 3.2 | 6.4 | 0.00 | 1.40 | 0.15 | 90 | 1014.5 |
| 20260507045443 | 14 | 69 | 3.2 | 6.4 | 0.00 | 1.40 | 0.15 | 90 | 1014.5 |
| 20260507044937 | 14 | 69 | 1.6 | 6.4 | 0.00 | 1.40 | 0.15 | 90 | 1014.5 |
| 20260507044435 | 14 | 69 | 1.6 | 8.0 | 0.00 | 1.40 | 0.15 | 90 | 1014.4 |
| 20260507044005 | 14 | 69 | 4.8 | 8.0 | 0.00 | 1.40 | 0.15 | 90 | 1014.3 |
| 20260507043441 | 14 | 69 | 0.0 | 9.7 | 0.00 | 1.40 | 0.15 | 90 | 1014.3 |
| 20260507042933 | 14 | 68 | 4.8 | 9.7 | 0.00 | 1.40 | 0.15 | 90 | 1014.4 |
| 20260507042432 | 14 | 67 | 4.8 | 9.7 | 0.00 | 1.40 | 0.15 | 90 | 1014.5 |
| 20260507041945 | 14 | 64 | 3.2 | 8.0 | 0.00 | 1.40 | 0.15 | 90 | 1014.4 |
| 20260507041443 | 14 | 64 | 3.2 | 12.9 | 0.00 | 1.40 | 0.15 | 90 | 1014.4 |
| 20260507040936 | 14 | 77 | 6.4 | 12.9 | 0.00 | 1.40 | 0.15 | 90 | 1014.3 |
| 20260507040434 | 14 | 80 | 3.2 | 9.7 | 0.00 | 1.40 | 0.15 | 90 | 1014.3 |
| 20260507035948 | 14 | 83 | 3.2 | 9.7 | 0.00 | 1.40 | 0.15 | 90 | 1014.3 |
| 20260507035441 | 14 | 84 | 4.8 | 9.7 | 0.00 | 1.40 | 0.15 | 90 | 1014.3 |
| 20260507034955 | 14 | 85 | 4.8 | 9.7 | 0.00 | 1.40 | 0.15 | 91 | 1014.3 |
| 20260507034430 | 14 | 89 | 4.8 | 9.7 | 0.00 | 1.40 | 0.15 | 91 | 1014.3 |
| 20260507033943 | 14 | 90 | 3.2 | 8.0 | 0.00 | 1.40 | 0.15 | 91 | 1014.3 |
| 20260507033440 | 14 | 90 | 3.2 | 9.7 | 0.00 | 1.40 | 0.15 | 91 | 1014.4 |
| 20260507032933 | 14 | 90 | 1.6 | 11.3 | 0.00 | 1.40 | 0.15 | 91 | 1014.4 |
| 20260507032432 | 14 | 90 | 3.2 | 11.3 | 0.00 | 1.40 | 0.15 | 91 | 1014.4 |
| 20260507031947 | 14 | 90 | 4.8 | 9.7 | 0.00 | 1.40 | 0.15 | 91 | 1014.4 |
| 20260507031445 | 14 | 90 | 1.6 | 6.4 | 0.00 | 1.40 | 0.15 | 91 | 1014.5 |
| 20260507030935 | 14 | 90 | 3.2 | 12.9 | 0.00 | 1.40 | 0.15 | 91 | 1014.4 |
| 20260507030459 | 14 | 91 | 3.2 | 12.9 | 0.00 | 1.40 | 0.15 | 91 | 1014.3 |
| 20260507025929 | 14 | 96 | 4.8 | 11.3 | 0.00 | 1.40 | 0.15 | 91 | 1014.3 |
| 20260507025428 | 14 | 95 | 3.2 | 9.7 | 0.00 | 1.40 | 0.15 | 91 | 1014.3 |
| 20260507024943 | 14 | 59 | 3.2 | 9.7 | 0.10 | 1.40 | 0.15 | 91 | 1014.3 |
| 20260507024509 | 14 | 36 | 1.6 | 8.0 | 0.20 | 1.40 | 0.15 | 91 | 1014.3 |
| 20260507023938 | 15 | 33 | 1.6 | 9.7 | 0.20 | 1.40 | 0.15 | 91 | 1014.4 |
| 20260507023436 | 15 | 78 | 3.2 | 14.5 | 0.30 | 1.40 | 0.15 | 91 | 1014.3 |
| 20260507022948 | 15 | 80 | 6.4 | 14.5 | 0.30 | 1.40 | 0.15 | 91 | 1014.4 |
| 20260507022442 | 15 | 83 | 4.8 | 16.1 | 0.41 | 1.40 | 0.15 | 91 | 1014.4 |
| 20260507021927 | 15 | 75 | 6.4 | 16.1 | 0.41 | 1.40 | 0.15 | 90 | 1014.4 |
| 20260507021427 | 15 | 82 | 9.7 | 16.1 | 0.41 | 1.40 | 0.15 | 91 | 1014.3 |
| 20260507020939 | 15 | 79 | 6.4 | 14.5 | 0.41 | 1.40 | 0.15 | 91 | 1014.4 |
| 20260507020504 | 15 | 77 | 4.8 | 12.9 | 0.41 | 1.40 | 0.15 | 91 | 1014.4 |
| 20260507015933 | 15 | 77 | 6.4 | 9.7 | 0.41 | 1.40 | 0.15 | 91 | 1014.5 |
| 20260507015431 | 15 | 79 | 1.6 | 6.4 | 0.41 | 1.40 | 0.15 | 91 | 1014.5 |
| 20260507014937 | 15 | 79 | 1.6 | 8.0 | 0.30 | 1.30 | 0.13 | 91 | 1014.4 |
| 20260507014432 | 15 | 79 | 1.6 | 9.7 | 0.20 | 1.19 | 0.10 | 90 | 1014.4 |
| 20260507013945 | 15 | 79 | 4.8 | 9.7 | 0.20 | 1.19 | 0.10 | 90 | 1014.5 |
| 20260507013440 | 15 | 80 | 1.6 | 4.8 | 0.10 | 1.09 | 0.08 | 90 | 1014.4 |
| 20260507012951 | 15 | 80 | 0.0 | 9.7 | 0.10 | 1.09 | 0.08 | 90 | 1014.4 |
| 20260507012448 | 15 | 80 | 0.0 | 9.7 | 0.00 | 0.99 | 0.05 | 90 | 1014.3 |
| 20260507012001 | 15 | 80 | 6.4 | 14.5 | 0.00 | 0.99 | 0.05 | 89 | 1014.3 |
| 20260507011435 | 15 | 81 | 8.0 | 14.5 | 0.00 | 0.99 | 0.05 | 89 | 1014.2 |
| 20260507010948 | 15 | 86 | 6.4 | 12.9 | 0.00 | 0.99 | 0.05 | 89 | 1014.3 |
| 20260507010446 | 15 | 91 | 4.8 | 6.4 | 0.10 | 0.99 | 0.05 | 89 | 1014.3 |
| 20260507005935 | 15 | 91 | 1.6 | 6.4 | 0.10 | 0.99 | 0.05 | 89 | 1014.4 |
| 20260507005432 | 15 | 91 | 1.6 | 4.8 | 0.20 | 0.99 | 0.05 | 89 | 1014.4 |
| 20260507004941 | 15 | 91 | 1.6 | 9.7 | 0.20 | 0.99 | 0.05 | 89 | 1014.4 |
| 20260507004438 | 15 | 91 | 1.6 | 9.7 | 0.30 | 0.99 | 0.05 | 89 | 1014.4 |
| 20260507003929 | 15 | 91 | 1.6 | 11.3 | 0.30 | 0.99 | 0.05 | 89 | 1014.4 |
| 20260507003508 | 15 | 91 | 4.8 | 11.3 | 0.30 | 0.99 | 0.05 | 88 | 1014.5 |
| 20260507002939 | 15 | 92 | 1.6 | 12.9 | 0.30 | 0.99 | 0.05 | 88 | 1014.5 |
| 20260507002502 | 15 | 91 | 6.4 | 12.9 | 0.30 | 0.99 | 0.05 | 87 | 1014.4 |
| 20260507001959 | 15 | 88 | 4.8 | 12.9 | 0.30 | 0.99 | 0.05 | 87 | 1014.5 |
| 20260507001431 | 15 | 81 | 6.4 | 12.9 | 0.30 | 0.99 | 0.05 | 87 | 1014.5 |
| 20260507001003 | 15 | 113 | 4.8 | 12.9 | 0.30 | 0.99 | 0.05 | 86 | 1014.4 |
| 20260507000436 | 15 | 127 | 4.8 | 14.5 | 0.20 | 0.89 | 0.05 | 87 | 1014.5 |
| 20260507000006 | 16 | 145 | 3.2 | 14.5 | 0.20 | 0.89 | 0.05 | 86 | 1014.5 |
| 20260506235442 | 16 | 153 | 4.8 | 16.1 | 0.10 | 0.79 | 0.03 | 86 | 1014.6 |
| 20260506234959 | 16 | 151 | 6.4 | 17.7 | 0.10 | 0.79 | 0.03 | 85 | 1014.6 |
| 20260506234436 | 16 | 156 | 4.8 | 17.7 | 0.00 | 0.71 | 0.00 | 86 | 1014.6 |
| 20260506233929 | 16 | 170 | 6.4 | 25.7 | 0.00 | 0.71 | 0.00 | 86 | 1014.7 |
| 20260506233431 | 16 | 163 | 8.0 | 35.4 | 0.00 | 0.71 | 0.00 | 85 | 1014.7 |
| 20260506232941 | 16 | 165 | 9.7 | 35.4 | 0.00 | 0.71 | 0.00 | 85 | 1014.6 |
| 20260506232437 | 16 | 179 | 8.0 | 29.0 | 0.00 | 0.71 | 0.00 | 84 | 1014.6 |
| 20260506231947 | 16 | 165 | 14.5 | 29.0 | 0.00 | 0.71 | 0.00 | 84 | 1014.6 |
| 20260506231443 | 16 | 186 | 12.9 | 24.1 | 0.00 | 0.71 | 0.00 | 84 | 1014.5 |
| 20260506230933 | 16 | 190 | 9.7 | 27.4 | 0.00 | 0.71 | 0.00 | 84 | 1014.4 |
| 20260506230519 | 16 | 131 | 11.3 | 27.4 | 0.00 | 0.71 | 0.00 | 84 | 1014.4 |
| 20260506225954 | 16 | 139 | 9.7 | 16.1 | 0.00 | 0.71 | 0.00 | 85 | 1014.4 |
| 20260506225431 | 16 | 171 | 9.7 | 16.1 | 0.10 | 0.71 | 0.00 | 85 | 1014.4 |
| 20260506224952 | 16 | 158 | 8.0 | 14.5 | 0.20 | 0.71 | 0.00 | 86 | 1014.4 |
| 20260506224439 | 16 | 161 | 4.8 | 8.0 | 0.20 | 0.71 | 0.00 | 86 | 1014.5 |
| 20260506223930 | 16 | 161 | 1.6 | 4.8 | 0.20 | 0.71 | 0.00 | 87 | 1014.4 |
| 20260506223428 | 16 | 161 | 0.0 | 0.0 | 0.20 | 0.71 | 0.00 | 87 | 1014.4 |
| 20260506222940 | 16 | 161 | 0.0 | 0.0 | 0.20 | 0.71 | 0.00 | 87 | 1014.4 |
| 20260506222503 | 16 | 161 | 0.0 | 0.0 | 0.20 | 0.71 | 0.00 | 86 | 1014.4 |
| 20260506221954 | 16 | 161 | 0.0 | 0.0 | 0.20 | 0.71 | 0.00 | 85 | 1014.4 |
| 20260506221448 | 16 | 161 | 0.0 | 3.2 | 0.20 | 0.71 | 0.00 | 85 | 1014.4 |
| 20260506220959 | 16 | 161 | 0.0 | 3.2 | 0.20 | 0.71 | 0.00 | 85 | 1014.4 |
| 20260506220443 | 16 | 161 | 0.0 | 9.7 | 0.20 | 0.71 | 0.00 | 85 | 1014.4 |
| 20260506215954 | 16 | 161 | 1.6 | 9.7 | 0.20 | 0.61 | 0.13 | 85 | 1014.4 |
| 20260506215429 | 16 | 161 | 4.8 | 12.9 | 0.10 | 0.51 | 0.13 | 85 | 1014.4 |
| 20260506214951 | 16 | 161 | 4.8 | 12.9 | 0.10 | 0.51 | 0.10 | 85 | 1014.4 |
| 20260506214439 | 16 | 161 | 3.2 | 11.3 | 0.10 | 0.51 | 0.10 | 85 | 1014.4 |
| 20260506213930 | 16 | 161 | 3.2 | 11.3 | 0.10 | 0.51 | 0.10 | 85 | 1014.4 |
| 20260506213457 | 16 | 161 | 4.8 | 11.3 | 0.20 | 0.51 | 0.10 | 85 | 1014.4 |
| 20260506212948 | 17 | 162 | 4.8 | 12.9 | 0.20 | 0.51 | 0.10 | 85 | 1014.5 |
| 20260506212447 | 17 | 162 | 6.4 | 12.9 | 0.20 | 0.51 | 0.10 | 85 | 1014.5 |
| 20260506211945 | 17 | 162 | 3.2 | 11.3 | 0.20 | 0.51 | 0.10 | 84 | 1014.5 |
| 20260506211443 | 17 | 162 | 8.0 | 16.1 | 0.20 | 0.51 | 0.10 | 84 | 1014.5 |
| 20260506210937 | 17 | 163 | 9.7 | 16.1 | 0.20 | 0.51 | 0.10 | 84 | 1014.6 |
| 20260506210502 | 17 | 160 | 6.4 | 12.9 | 0.20 | 0.51 | 0.10 | 83 | 1014.6 |
| 20260506205929 | 17 | 158 | 4.8 | 11.3 | 0.10 | 0.41 | 0.08 | 83 | 1014.5 |
| 20260506205454 | 17 | 158 | 4.8 | 11.3 | 0.20 | 0.41 | 0.08 | 82 | 1014.5 |
| 20260506205007 | 17 | 158 | 1.6 | 11.3 | 0.20 | 0.41 | 0.08 | 81 | 1014.6 |
| 20260506204443 | 17 | 158 | 4.8 | 12.9 | 0.20 | 0.41 | 0.08 | 81 | 1014.6 |
| 20260506203936 | 17 | 157 | 6.4 | 16.1 | 0.20 | 0.41 | 0.08 | 80 | 1014.6 |
| 20260506203435 | 17 | 155 | 8.0 | 16.1 | 0.10 | 0.30 | 0.05 | 79 | 1014.6 |
| 20260506202941 | 17 | 146 | 6.4 | 16.1 | 0.10 | 0.30 | 0.05 | 79 | 1014.6 |
| 20260506202503 | 17 | 159 | 6.4 | 16.1 | 0.10 | 0.30 | 0.05 | 78 | 1014.7 |
| 20260506201943 | 17 | 171 | 4.8 | 14.5 | 0.10 | 0.30 | 0.05 | 78 | 1014.7 |
| 20260506201439 | 17 | 169 | 6.4 | 14.5 | 0.10 | 0.30 | 0.05 | 77 | 1014.6 |
| 20260506200927 | 18 | 154 | 4.8 | 16.1 | 0.10 | 0.30 | 0.05 | 77 | 1014.6 |
| 20260506200454 | 18 | 156 | 6.4 | 19.3 | 0.10 | 0.30 | 0.05 | 76 | 1014.6 |
| 20260506195959 | 18 | 152 | 9.7 | 20.9 | 0.10 | 0.30 | 0.05 | 75 | 1014.6 |
| 20260506195446 | 18 | 144 | 9.7 | 20.9 | 0.00 | 0.20 | 0.05 | 75 | 1014.6 |
| 20260506194958 | 18 | 165 | 8.0 | 20.9 | 0.00 | 0.20 | 0.05 | 73 | 1014.6 |
| 20260506194459 | 18 | 155 | 11.3 | 20.9 | 0.00 | 0.20 | 0.05 | 72 | 1014.5 |
| 20260506193939 | 18 | 154 | 9.7 | 19.3 | 0.00 | 0.20 | 0.05 | 71 | 1014.5 |
| 20260506193434 | 18 | 166 | 11.3 | 25.7 | 0.00 | 0.20 | 0.05 | 70 | 1014.5 |
| 20260506193016 | 18 | 183 | 11.3 | 25.7 | 0.00 | 0.20 | 0.05 | 69 | 1014.5 |
| 20260506192447 | 18 | 208 | 9.7 | 24.1 | 0.00 | 0.20 | 0.05 | 68 | 1014.4 |
| 20260506191945 | 18 | 169 | 14.5 | 24.1 | 0.00 | 0.20 | 0.05 | 68 | 1014.3 |
| 20260506191436 | 18 | 149 | 4.8 | 12.9 | 0.00 | 0.20 | 0.05 | 68 | 1014.3 |
| 20260506190928 | 18 | 165 | 8.0 | 19.3 | 0.00 | 0.20 | 0.05 | 67 | 1014.2 |
| 20260506190506 | 18 | 164 | 9.7 | 22.5 | 0.00 | 0.20 | 0.05 | 68 | 1014.2 |
| 20260506185955 | 18 | 173 | 9.7 | 22.5 | 0.00 | 0.20 | 0.05 | 69 | 1014.1 |
| 20260506185507 | 18 | 167 | 8.0 | 16.1 | 0.00 | 0.20 | 0.05 | 69 | 1014.0 |
| 20260506184955 | 18 | 181 | 4.8 | 16.1 | 0.00 | 0.20 | 0.05 | 70 | 1014.0 |
| 20260506184454 | 18 | 153 | 6.4 | 16.1 | 0.00 | 0.20 | 0.05 | 70 | 1014.0 |
| 20260506183944 | 19 | 147 | 9.7 | 16.1 | 0.00 | 0.20 | 0.05 | 70 | 1014.0 |
| 20260506183505 | 19 | 159 | 8.0 | 16.1 | 0.00 | 0.20 | 0.05 | 70 | 1014.0 |
| 20260506182944 | 19 | 165 | 8.0 | 12.9 | 0.00 | 0.20 | 0.05 | 70 | 1014.0 |
| 20260506182433 | 19 | 165 | 6.4 | 14.5 | 0.00 | 0.20 | 0.05 | 70 | 1013.9 |
| 20260506181946 | 19 | 155 | 6.4 | 14.5 | 0.00 | 0.20 | 0.05 | 70 | 1013.9 |
| 20260506181445 | 19 | 163 | 4.8 | 16.1 | 0.00 | 0.20 | 0.05 | 70 | 1013.8 |
| 20260506181001 | 19 | 163 | 8.0 | 16.1 | 0.00 | 0.20 | 0.05 | 70 | 1013.8 |
| 20260506180503 | 19 | 163 | 11.3 | 16.1 | 0.00 | 0.20 | 0.05 | 70 | 1013.8 |
| 20260506175947 | 19 | 163 | 8.0 | 16.1 | 0.00 | 0.20 | 0.05 | 70 | 1013.8 |
| 20260506175443 | 19 | 167 | 4.8 | 17.7 | 0.00 | 0.20 | 0.05 | 70 | 1013.8 |
| 20260506174930 | 19 | 157 | 8.0 | 17.7 | 0.00 | 0.20 | 0.05 | 70 | 1013.8 |
| 20260506174431 | 19 | 169 | 8.0 | 24.1 | 0.00 | 0.20 | 0.05 | 69 | 1013.8 |
| 20260506173944 | 19 | 142 | 9.7 | 24.1 | 0.00 | 0.20 | 0.05 | 70 | 1013.8 |
| 20260506173441 | 19 | 156 | 9.7 | 22.5 | 0.00 | 0.20 | 0.05 | 70 | 1013.8 |
| 20260506172935 | 19 | 161 | 6.4 | 20.9 | 0.00 | 0.20 | 0.05 | 70 | 1013.8 |
| 20260506172433 | 19 | 150 | 8.0 | 20.9 | 0.00 | 0.20 | 0.05 | 71 | 1013.7 |
| 20260506171946 | 19 | 161 | 6.4 | 19.3 | 0.00 | 0.20 | 0.05 | 72 | 1013.7 |
| 20260506171444 | 19 | 142 | 11.3 | 19.3 | 0.00 | 0.20 | 0.05 | 72 | 1013.7 |
| 20260506170933 | 19 | 148 | 11.3 | 19.3 | 0.00 | 0.20 | 0.05 | 71 | 1013.7 |
| 20260506170428 | 19 | 210 | 12.9 | 19.3 | 0.00 | 0.20 | 0.05 | 72 | 1013.8 |
| 20260506165943 | 19 | 156 | 4.8 | 12.9 | 0.00 | 0.20 | 0.05 | 73 | 1013.8 |
| 20260506165441 | 19 | 165 | 6.4 | 14.5 | 0.00 | 0.20 | 0.05 | 72 | 1013.9 |
| 20260506164933 | 19 | 178 | 8.0 | 16.1 | 0.00 | 0.20 | 0.05 | 72 | 1013.8 |
| 20260506164432 | 20 | 193 | 8.0 | 20.9 | 0.00 | 0.20 | 0.05 | 73 | 1013.9 |
| 20260506163928 | 20 | 151 | 6.4 | 24.1 | 0.00 | 0.20 | 0.05 | 72 | 1013.9 |
| 20260506163454 | 20 | 123 | 8.0 | 25.7 | 0.00 | 0.20 | 0.05 | 70 | 1013.9 |
| 20260506162945 | 20 | 148 | 9.7 | 25.7 | 0.00 | 0.20 | 0.05 | 68 | 1013.9 |
| 20260506162444 | 20 | 150 | 11.3 | 22.5 | 0.00 | 0.20 | 0.05 | 68 | 1013.8 |
| 20260506161932 | 20 | 165 | 6.4 | 29.0 | 0.00 | 0.20 | 0.05 | 68 | 1013.9 |
| 20260506161429 | 20 | 158 | 14.5 | 29.0 | 0.00 | 0.20 | 0.05 | 68 | 1013.9 |
| 20260506160943 | 20 | 174 | 9.7 | 22.5 | 0.00 | 0.20 | 0.05 | 68 | 1013.9 |
| 20260506160440 | 20 | 163 | 6.4 | 17.7 | 0.00 | 0.20 | 0.05 | 68 | 1013.8 |
| 20260506155931 | 20 | 169 | 8.0 | 19.3 | 0.00 | 0.20 | 0.05 | 68 | 1013.8 |
| 20260506155428 | 20 | 175 | 8.0 | 19.3 | 0.00 | 0.20 | 0.05 | 67 | 1013.8 |
| 20260506154939 | 20 | 182 | 12.9 | 22.5 | 0.00 | 0.20 | 0.05 | 67 | 1013.8 |
| 20260506154507 | 20 | 185 | 8.0 | 17.7 | 0.00 | 0.20 | 0.05 | 67 | 1013.9 |
| 20260506153937 | 20 | 179 | 8.0 | 24.1 | 0.00 | 0.20 | 0.05 | 66 | 1014.0 |
| 20260506153430 | 20 | 180 | 9.7 | 24.1 | 0.00 | 0.20 | 0.05 | 66 | 1014.0 |
| 20260506152944 | 20 | 179 | 9.7 | 20.9 | 0.00 | 0.20 | 0.05 | 66 | 1014.0 |
| 20260506152442 | 20 | 207 | 9.7 | 17.7 | 0.00 | 0.20 | 0.05 | 66 | 1014.0 |
| 20260506151958 | 20 | 163 | 8.0 | 17.7 | 0.00 | 0.20 | 0.05 | 66 | 1014.0 |
| 20260506151433 | 21 | 175 | 6.4 | 19.3 | 0.00 | 0.20 | 0.05 | 66 | 1014.0 |
| 20260506150948 | 21 | 177 | 4.8 | 9.7 | 0.00 | 0.20 | 0.05 | 66 | 1014.0 |
| 20260506150446 | 21 | 192 | 4.8 | 22.5 | 0.00 | 0.20 | 0.05 | 65 | 1014.0 |
| 20260506145931 | 21 | 186 | 9.7 | 22.5 | 0.00 | 0.20 | 0.05 | 65 | 1014.0 |
| 20260506145427 | 21 | 179 | 9.7 | 20.9 | 0.00 | 0.20 | 0.05 | 64 | 1014.0 |
| 20260506144940 | 21 | 168 | 8.0 | 16.1 | 0.00 | 0.20 | 0.05 | 65 | 1013.9 |
| 20260506144438 | 21 | 186 | 3.2 | 22.5 | 0.00 | 0.20 | 0.05 | 65 | 1013.8 |
| 20260506143948 | 21 | 159 | 8.0 | 22.5 | 0.00 | 0.20 | 0.05 | 65 | 1013.8 |
| 20260506143445 | 21 | 202 | 8.0 | 16.1 | 0.00 | 0.20 | 0.05 | 64 | 1013.9 |
| 20260506142937 | 21 | 181 | 8.0 | 19.3 | 0.00 | 0.20 | 0.05 | 63 | 1014.0 |
| 20260506142442 | 21 | 202 | 8.0 | 25.7 | 0.00 | 0.20 | 0.05 | 63 | 1014.0 |
| 20260506141934 | 21 | 145 | 14.5 | 25.7 | 0.00 | 0.20 | 0.05 | 63 | 1014.0 |
| 20260506141429 | 22 | 140 | 12.9 | 24.1 | 0.00 | 0.20 | 0.05 | 62 | 1014.1 |
| 20260506140953 | 22 | 167 | 8.0 | 20.9 | 0.00 | 0.20 | 0.05 | 62 | 1014.1 |
| 20260506140435 | 22 | 190 | 9.7 | 20.9 | 0.00 | 0.20 | 0.05 | 62 | 1014.1 |
| 20260506135947 | 22 | 177 | 9.7 | 25.7 | 0.00 | 0.20 | 0.05 | 61 | 1014.0 |
| 20260506135428 | 22 | 189 | 8.0 | 22.5 | 0.00 | 0.20 | 0.05 | 61 | 1013.9 |
| 20260506134940 | 22 | 231 | 11.3 | 17.7 | 0.00 | 0.20 | 0.05 | 61 | 1014.0 |
| 20260506134439 | 22 | 185 | 6.4 | 19.3 | 0.00 | 0.20 | 0.05 | 61 | 1014.1 |
| 20260506133948 | 22 | 216 | 8.0 | 20.9 | 0.00 | 0.20 | 0.05 | 60 | 1014.1 |
| 20260506133455 | 22 | 225 | 6.4 | 19.3 | 0.00 | 0.20 | 0.05 | 59 | 1014.3 |
| 20260506132931 | 22 | 233 | 8.0 | 24.1 | 0.00 | 0.20 | 0.05 | 59 | 1014.3 |
| 20260506132456 | 22 | 206 | 9.7 | 24.1 | 0.00 | 0.20 | 0.05 | 59 | 1014.3 |
| 20260506132015 | 22 | 219 | 8.0 | 22.5 | 0.00 | 0.20 | 0.05 | 59 | 1014.2 |
| 20260506131430 | 23 | 204 | 9.7 | 27.4 | 0.00 | 0.20 | 0.05 | 58 | 1014.2 |
| 20260506130943 | 23 | 211 | 8.0 | 25.7 | 0.00 | 0.20 | 0.05 | 58 | 1014.3 |
| 20260506130441 | 23 | 210 | 6.4 | 24.1 | 0.00 | 0.20 | 0.05 | 57 | 1014.3 |
| 20260506130000 | 23 | 243 | 9.7 | 22.5 | 0.00 | 0.20 | 0.05 | 57 | 1014.2 |
| 20260506125454 | 23 | 190 | 8.0 | 16.1 | 0.00 | 0.20 | 0.05 | 57 | 1014.2 |
| 20260506124931 | 23 | 227 | 9.7 | 25.7 | 0.00 | 0.20 | 0.05 | 57 | 1014.2 |
| 20260506124458 | 23 | 198 | 9.7 | 27.4 | 0.00 | 0.20 | 0.05 | 56 | 1014.3 |
| 20260506123948 | 23 | 200 | 11.3 | 27.4 | 0.00 | 0.20 | 0.05 | 56 | 1014.3 |
| 20260506123444 | 23 | 160 | 8.0 | 22.5 | 0.00 | 0.20 | 0.05 | 53 | 1014.3 |
| 20260506122930 | 23 | 206 | 11.3 | 22.5 | 0.00 | 0.20 | 0.05 | 53 | 1014.3 |
| 20260506122456 | 23 | 239 | 6.4 | 25.7 | 0.00 | 0.20 | 0.05 | 53 | 1014.3 |
| 20260506121931 | 24 | 181 | 9.7 | 25.7 | 0.00 | 0.20 | 0.05 | 53 | 1014.2 |
| 20260506121453 | 24 | 229 | 9.7 | 27.4 | 0.00 | 0.20 | 0.05 | 52 | 1014.3 |
| 20260506120939 | 24 | 170 | 12.9 | 27.4 | 0.00 | 0.20 | 0.05 | 52 | 1014.2 |
| 20260506120437 | 24 | 202 | 8.0 | 25.7 | 0.00 | 0.20 | 0.05 | 52 | 1014.2 |
| 20260506115946 | 24 | 156 | 9.7 | 27.4 | 0.00 | 0.20 | 0.05 | 53 | 1014.2 |
| 20260506115444 | 24 | 196 | 12.9 | 27.4 | 0.00 | 0.20 | 0.05 | 53 | 1014.2 |
| 20260506115107 | 24 | 219 | 9.7 | 27.4 | 0.00 | 0.20 | 0.05 | 53 | 1014.1 |
| 20260506114445 | 24 | 236 | 14.5 | 27.4 | 0.00 | 0.20 | 0.05 | 53 | 1014.3 |
| 20260506114005 | 24 | 196 | 9.7 | 25.7 | 0.00 | 0.20 | 0.05 | 53 | 1014.1 |
| 20260506113445 | 24 | 206 | 9.7 | 24.1 | 0.00 | 0.20 | 0.05 | 54 | 1014.1 |
| 20260506112935 | 24 | 198 | 11.3 | 19.3 | 0.00 | 0.20 | 0.05 | 53 | 1014.0 |
| 20260506112521 | 24 | 181 | 8.0 | 24.1 | 0.00 | 0.20 | 0.05 | 53 | 1014.1 |
| 20260506112023 | 24 | 189 | 9.7 | 24.1 | 0.00 | 0.20 | 0.05 | 53 | 1014.1 |
| 20260506111940 | 24 | 189 | 9.7 | 24.1 | 0.00 | 0.20 | 0.05 | 53 | 1014.1 |
| 20260506111444 | 24 | 203 | 9.7 | 22.5 | 0.00 | 0.20 | 0.05 | 52 | 1014.1 |
| 20260506110944 | 24 | 208 | 11.3 | 22.5 | 0.00 | 0.20 | 0.05 | 51 | 1014.1 |
| 20260506110440 | 24 | 212 | 8.0 | 19.3 | 0.00 | 0.20 | 0.05 | 51 | 1014.0 |
| 20260506105942 | 23 | 184 | 9.7 | 19.3 | 0.00 | 0.20 | 0.05 | 51 | 1014.0 |
| 20260506105443 | 23 | 181 | 8.0 | 22.5 | 0.00 | 0.20 | 0.05 | 51 | 1014.1 |
| 20260506104929 | 23 | 215 | 11.3 | 30.6 | 0.00 | 0.20 | 0.05 | 51 | 1014.2 |
| 20260506104452 | 23 | 159 | 16.1 | 30.6 | 0.00 | 0.20 | 0.05 | 51 | 1014.3 |
| 20260506103948 | 23 | 167 | 4.8 | 29.0 | 0.00 | 0.20 | 0.05 | 52 | 1014.3 |
| 20260506103444 | 23 | 181 | 9.7 | 29.0 | 0.00 | 0.20 | 0.05 | 50 | 1014.4 |
| 20260506102958 | 22 | 146 | 9.7 | 25.7 | 0.00 | 0.20 | 0.05 | 51 | 1014.6 |
| 20260506102446 | 22 | 151 | 14.5 | 32.2 | 0.00 | 0.20 | 0.05 | 50 | 1014.5 |
| 20260506102000 | 22 | 155 | 14.5 | 32.2 | 0.00 | 0.20 | 0.05 | 51 | 1014.4 |
| 20260506101445 | 22 | 160 | 16.1 | 30.6 | 0.00 | 0.20 | 0.05 | 54 | 1014.2 |
| 20260506100937 | 22 | 171 | 14.5 | 29.0 | 0.00 | 0.20 | 0.05 | 55 | 1014.2 |
| 20260506100431 | 22 | 186 | 14.5 | 29.0 | 0.00 | 0.20 | 0.05 | 54 | 1014.2 |
| 20260506095950 | 21 | 113 | 8.0 | 24.1 | 0.00 | 0.20 | 0.05 | 57 | 1014.2 |
| 20260506095444 | 21 | 159 | 8.0 | 25.7 | 0.00 | 0.20 | 0.05 | 58 | 1014.3 |
| 20260506094935 | 21 | 202 | 12.9 | 25.7 | 0.00 | 0.20 | 0.05 | 58 | 1014.3 |
| 20260506094427 | 21 | 187 | 4.8 | 29.0 | 0.00 | 0.20 | 0.05 | 60 | 1014.3 |
| 20260506094009 | 21 | 146 | 16.1 | 29.0 | 0.00 | 0.20 | 0.05 | 59 | 1014.4 |
| 20260506093443 | 21 | 138 | 14.5 | 25.7 | 0.00 | 0.20 | 0.05 | 60 | 1014.3 |
| 20260506092937 | 21 | 125 | 11.3 | 27.4 | 0.00 | 0.20 | 0.05 | 60 | 1014.3 |
| 20260506092433 | 21 | 165 | 12.9 | 24.1 | 0.00 | 0.20 | 0.05 | 61 | 1014.2 |
| 20260506091954 | 21 | 137 | 9.7 | 25.7 | 0.00 | 0.20 | 0.05 | 64 | 1014.2 |
| 20260506091429 | 20 | 169 | 11.3 | 29.0 | 0.00 | 0.20 | 0.05 | 64 | 1014.1 |
| 20260506090950 | 20 | 156 | 8.0 | 22.5 | 0.00 | 0.20 | 0.05 | 65 | 1014.0 |
| 20260506090444 | 20 | 142 | 11.3 | 22.5 | 0.00 | 0.20 | 0.05 | 65 | 1014.0 |
| 20260506085930 | 20 | 166 | 9.7 | 22.5 | 0.00 | 0.20 | 0.05 | 66 | 1014.1 |
| 20260506085441 | 20 | 125 | 9.7 | 24.1 | 0.00 | 0.20 | 0.05 | 66 | 1014.0 |
| 20260506084933 | 19 | 177 | 9.7 | 27.4 | 0.00 | 0.20 | 0.05 | 67 | 1014.1 |
| 20260506084458 | 19 | 154 | 9.7 | 33.8 | 0.00 | 0.20 | 0.05 | 67 | 1014.1 |
| 20260506083949 | 19 | 170 | 16.1 | 33.8 | 0.00 | 0.20 | 0.05 | 67 | 1014.0 |